Vertical_Velocity
1 -1 3 3 -6 24 2 11 7 5 4 -1 1 2 -0 3 -1 2 -3 0 -3 1 1 -1 -4 2 -3 -2 -6 -1 -0 -3
23 -9 -3 10 13 -16 3 5 -2 13 5 3 6 5 5 -0 3 1 2 -2 1 -1 -3 -5 -1 -1 -2 -2 -3 -2 -3 1
58 7 2 9 8 -12 -9 30 7 0 4 8 1 2 1 0 1 -2 -1 2 -3 -3 4 -3 -1 0 -4 2 1 -0 -0 1
10 11 19 -13 23 -17 -18 15 13 4 -17 0 9 7 4 -1 3 1 -2 -2 3 1 -2 -0 4 -2 -1 1 -1 2 1 -1
-6 -7 22 18 5 -11 -1 1 8 -18 -15 9 4 7 5 5 -0 -3 -1 3 1 1 0 -2 1 3 -2 1 2 2 -8 -2
-1 -8 -18 -2 3 -11 -3 -16 -11 -30 1 7 4 7 3 1 1 2 5 -3 -2 1 2 -2 2 -1 2 -2 -1 -10 0 -3
14 3 4 4 6 -3 -24 5 -2 -5 -2 2 2 8 2 4 -1 0 -1 2 -2 -0 4 0 -2 -7 -5 -2 2 -2 -1 -2
3 10 7 -1 9 -5 -3 -4 1 -3 2 8 2 5 8 -4 8 0 -4 5 -0 -1 -3 -1 1 -1 -5 -4 -0 1 -4 0
-6 -3 3 4 -4 5 -2 -0 -3 -0 1 1 5 3 5 2 2 -1 -1 3 -0 -4 -2 0 1 0 -4 1 -1 -1 -2 -2
4 -2 4 6 -3 1 -1 -6 2 1 3 2 -1 1 5 -3 1 2 -3 -0 -0 -2 -3 -2 -0 -3 0 1 -4 -2 -2 -3
-1 2 2 -1 -0 -1 -4 -1 -0 1 2 8 -0 1 -0 -2 2 -1 -1 0 -2 -3 -1 -2 -3 -1 2 -2 -4 -2 -4 -3
-2 -0 -1 3 0 -1 -2 5 -1 3 1 -3 0 -1 5 2 -2 0 -2 1 -2 -2 -4 5 1 -2 1 -2 -1 -1 -2 -1
-0 -1 -0 3 1 4 0 1 2 -1 -1 2 -0 0 -2 -2 2 2 -2 -3 -1 0 0 -0 -2 -0 -0 -4 -4 5 -0 -2
-3 -3 -2 -1 -0 4 2 -1 3 6 1 -0 0 1 -0 2 -2 -3 -1 -3 0 2 -1 -2 -1 -1 -1 -1 3 -21 -9 -0
1 1 5 4 2 -3 -2 -0 -10 -0 4 8 3 0 3 -2 2 -5 0 1 -2 1 -1 0 -2 3 -0 3 -1 2 -1 -10
-0 0 -2 -1 -1 1 3 5 7 2 1 -2 3 0 -0 -1 0 -0 -4 1 -0 -1 -2 1 4 -1 -1 -2 -1 2 1 4
3 1 1 3 4 1 4 3 -2 -2 -1 2 2 1 1 1 -1 -2 -2 0 0 1 0 -0 1 2 2 -2 -0 -4 -0 -0
1 0 4 -1 -0 2 3 1 2 1 3 1 0 0 0 1 0 -0 1 1 1 2 -1 -0 -1 2 -3 -1 -1 1 -3 -3
0 1 0 -1 0 2 -0 1 1 -0 1 1 0 1 0 5 4 4 2 -1 1 1 1 6 1 7 2 -4 -4 1 1 0
2 3 6 3 -1 -1 -1 6 2 3 2 1 3 4 5 2 2 2 1 -2 2 -1 -4 -0 1 -1 3 3 1 1 -1 -1
Height
3125 3130 3133 3137 3140 3142 3153 3160 3163 3168 3171 3172 3174 3177 3180 3182 3183 3184 3185 3185 3185 3185 3186 3186 3185 3185 3185 3185 3185 3184 3184 3183
3114 3127 3132 3134 3134 3143 3151 3156 3160 3167 3170 3173 3173 3177 3180 3181 3182 3182 3183 3184 3185 3186 3185 3184 3185 3185 3183 3184 3183 3183 3183 3182
3117 3124 3128 3124 3126 3133 3148 3155 3159 3164 3168 3172 3174 3176 3178 3180 3181 3182 3183 3185 3185 3185 3184 3185 3184 3184 3183 3183 3182 3182 3182 3181
3121 3120 3121 3127 3129 3131 3143 3153 3156 3159 3164 3173 3175 3177 3178 3180 3181 3182 3183 3184 3185 3183 3184 3184 3183 3183 3183 3182 3181 3181 3180 3178
3115 3117 3120 3119 3125 3129 3140 3146 3151 3156 3167 3172 3175 3177 3178 3179 3180 3181 3182 3183 3183 3183 3183 3183 3182 3182 3181 3180 3180 3180 3179 3178
3116 3118 3120 3119 3128 3130 3134 3141 3152 3160 3166 3173 3175 3177 3177 3178 3180 3180 3181 3182 3183 3182 3181 3180 3180 3180 3180 3179 3179 3178 3175 3174
3114 3117 3119 3123 3127 3127 3135 3144 3152 3160 3168 3172 3174 3177 3177 3177 3178 3179 3180 3180 3180 3180 3178 3177 3178 3178 3178 3177 3175 3174 3172 3170
3116 3118 3121 3125 3131 3136 3143 3149 3153 3160 3167 3171 3173 3174 3175 3176 3178 3177 3179 3177 3177 3176 3176 3176 3175 3174 3174 3173 3171 3169 3168 3165
3121 3124 3129 3133 3135 3141 3146 3149 3154 3161 3166 3169 3171 3172 3173 3174 3176 3176 3175 3175 3174 3173 3172 3172 3171 3171 3170 3169 3167 3165 3163 3161
3128 3131 3134 3137 3139 3144 3148 3152 3156 3161 3163 3166 3168 3170 3171 3172 3173 3173 3172 3171 3171 3171 3169 3169 3169 3168 3167 3165 3163 3161 3159 3157
3132 3135 3138 3141 3144 3147 3149 3152 3155 3159 3161 3164 3165 3167 3169 3169 3170 3169 3169 3168 3168 3167 3167 3165 3165 3163 3162 3160 3158 3157 3155 3154
3135 3137 3140 3142 3144 3147 3149 3151 3154 3157 3159 3161 3163 3164 3165 3166 3166 3166 3165 3164 3164 3162 3162 3161 3160 3159 3156 3155 3153 3151 3149 3146
3136 3138 3141 3143 3145 3147 3149 3152 3155 3156 3158 3159 3161 3161 3162 3163 3162 3162 3161 3160 3159 3158 3157 3157 3156 3155 3152 3148 3145 3145 3142 3138
3138 3140 3141 3143 3145 3147 3150 3152 3153 3155 3156 3157 3157 3158 3158 3158 3158 3157 3156 3155 3154 3154 3154 3152 3151 3150 3147 3144 3141 3134 3132 3131
3136 3138 3140 3142 3145 3146 3148 3149 3151 3152 3153 3154 3154 3154 3154 3153 3153 3152 3152 3151 3151 3150 3149 3148 3145 3143 3141 3140 3135 3134 3128 3119
3135 3137 3139 3141 3142 3143 3145 3147 3148 3149 3150 3149 3150 3149 3148 3149 3148 3148 3147 3146 3145 3145 3144 3142 3139 3135 3134 3132 3130 3126 3123 3120
3133 3135 3137 3138 3140 3141 3142 3144 3145 3145 3145 3144 3144 3144 3144 3144 3143 3142 3141 3141 3140 3138 3137 3134 3133 3130 3127 3123 3121 3117 3116 3112
3130 3133 3135 3136 3137 3138 3139 3141 3141 3140 3140 3140 3140 3139 3138 3138 3137 3136 3136 3135 3133 3131 3129 3127 3125 3123 3119 3116 3112 3110 3106 3102
3128 3129 3131 3133 3133 3135 3136 3137 3137 3136 3136 3135 3134 3133 3132 3131 3130 3129 3128 3127 3126 3124 3122 3119 3116 3114 3111 3108 3104 3101 3098 3094
3124 3126 3127 3127 3129 3130 3130 3130 3130 3130 3130 3128 3127 3125 3125 3124 3122 3122 3121 3120 3119 3117 3115 3111 3108 3105 3102 3099 3094 3091 3088 3084